Volver al catálogo

COSMOS 2251 DEB

ActivoLEO
NORAD 35288·DEBRIS·🇷🇺 Russia

Lanzado Jun 16, 1993 desde Plesetsk Cosmodrome

Loading…

Próximos Pases (próximas 24 horas)

TLE

ActualizadoSource: Space-Track

Época: Sep 14, 2026, 13:45 UTC

1 35288U 93036AJS 26257.57353182  .00004520  00000-0  77986-3 0  9994
2 35288  73.9486 199.9770 0035376   2.2511 357.8811 14.68371572919233

Sigue COSMOS 2251 DEB en tiempo real con AllMySat

Download on the App Store